This demonstration page uses our WeatherBlox Daily Observations layout. Learn more.

Left ArrowRight Arrow

39.95238, -75.16362

Hourly Observations for May 9, 2018

Temp ( °F °C ) Dew Point ( °F °C ) Humidity (%) Winds ( mph kmh ) Pressure ( in mb ) Visibility ( mi km ) Precip ( " mm )
3:54 am 03:54 Clear 54 12.2 48 8.9 80 80 NE 3 6 30.19 1022 10 16 0.00 0.00
4:54 am 04:54 Clear 54 12.2 47 8.3 77 77 E 3 6 30.18 1022 10 16 0.00 0.00
5:54 am 05:54 Sunny 54 12.2 50 10 87 87 Calm 30.17 1022 10 16 0.00 0.00
6:54 am 06:54 Sunny 56 13.3 49 9.4 77 77 NNE 6 9 30.18 1022 10 16 0.00 0.00
7:54 am 07:54 Sunny 60 15.6 50 10 70 70 ENE 5 7 30.17 1022 10 16 0.00 0.00
8:54 am 08:54 Mostly Sunny 64 17.8 50 10 60 60 E 7 11 30.17 1022 10 16 0.00 0.00
9:54 am 09:54 Mostly Sunny 67 19.4 49 9.4 53 53 E 6 9 30.16 1021 10 16 0.00 0.00
10:54 am 10:54 Mostly Sunny 70 21.1 47 8.3 44 44 ESE 7 11 30.15 1021 10 16 0.00 0.00
11:54 am 11:54 Mostly Sunny 73 22.8 45 7.2 37 37 ESE 5 7 30.15 1021 10 16 0.00 0.00
12:54 pm 12:54 Mostly Sunny 76 24.4 48 8.9 37 37 SE 8 13 30.14 1021 10 16 0.00 0.00
1:54 pm 13:54 Mostly Sunny 77 25 47 8.3 35 35 E 8 13 30.12 1020 10 16 0.00 0.00
2:54 pm 14:54 Partly Cloudy 78 25.6 46 7.8 32 32 ENE 7 11 30.11 1020 10 16 0.00 0.00
3:54 pm 15:54 Partly Cloudy 78 25.6 47 8.3 33 33 SE 8 13 30.09 1019 10 16 0.00 0.00
4:54 pm 16:54 Partly Cloudy 78 25.6 46 7.8 32 32 SE 7 11 30.06 1018 10 16 0.00 0.00
5:54 pm 17:54 Mostly Cloudy 77 25 46 7.8 33 33 ESE 10 17 30.05 1018 10 16 0.00 0.00
6:54 pm 18:54 Partly Cloudy 73 22.8 46 7.8 38 38 SE 15 24 30.04 1017 10 16 0.00 0.00
7:54 pm 19:54 Partly Cloudy 69 20.6 44 6.7 41 41 SE 8 13 30.06 1018 10 16 0.00 0.00
8:54 pm 20:54 Mostly Clear 65 18.3 41 5 42 42 SSE 5 7 30.08 1019 10 16 0.00 0.00
9:54 pm 21:54 Clear 63 17.2 42 5.6 47 47 S 3 6 30.09 1019 10 16 0.00 0.00
10:54 pm 22:54 Clear 61 16.1 40 4.4 46 46 SSE 5 7 30.09 1019 10 16 0.00 0.00
11:54 pm 23:54 Clear 60 15.6 47 8.3 62 62 SW 6 9 30.10 1019 10 16 0.00 0.00

Powered by AerisWeather